User: anonymous   Login
Location: Unspecified
(0.0000°N, 0.0000°E)
Time: 08:13:56
(UTC+00:00)
Language:

OTV 5 (USA 277) - Orbit

View from above orbital plane
View from above orbital plane
View from above satellite
View from above satellite

Ground track
Ground track

The orbit data is extracted from the following two-line orbital elements,

1 42932U 17052A   19281.20650702 0.00000000  00000-0  00000-0 0    01
2 42932  54.5101  19.2506 0010332 218.5653 141.4346 15.84694038    01
Epoch (UTC): 08 October 2019 04:57:22
Eccentricity: 0.0010332
inclination: 54.5101°
perigee height: 310 km
apogee height: 324 km
right ascension of ascending node: 19.2506°
argument of perigee: 218.5653°
revolutions per day: 15.84694038
mean anomaly at epoch: 141.4346°
orbit number at epoch: 0

The dashed part of the orbit path shows where the satellite is in the earth's shadow,  

DLR